When you browse on this site, cookies collect data to enhance your experience and personalize the content and advertising you see.
Visit our Privacy Policy to learn more. By continuing to use the site, you agree to this use of cookies and data.
  • In Czech Republic
  • List of Countries
  • For 7 days
  • Water Temperature
  • Weather Map
  • Weather Widgets
  • user-avatar
    Login

    Hourly Weather Hrodna

    Today, 6 June, Saturday

    Time Temperature Precipitation Wind Pressure Humidity
    00:00 +14°C° 0.6 mm 3 mps 739 mmHg 96%
    01:00 +14°C° 0.6 mm 3 mps 740 mmHg 97%
    02:00 +14°C° 0.6 mm 3 mps 740 mmHg 97%
    03:00 +14°C° 0 mm 3 mps 740 mmHg 97%
    04:00 +13°C° 0 mm 3 mps 741 mmHg 97%
    05:00 +13°C° 0 mm 3 mps 741 mmHg 97%
    06:00 +14°C° 0 mm 4 mps 741 mmHg 92%
    07:00 +15°C° 0 mm 5 mps 742 mmHg 87%
    08:00 +16°C° 0 mm 6 mps 742 mmHg 81%
    09:00 +17°C° 0 mm 6 mps 743 mmHg 76%
    10:00 +17°C° 0 mm 7 mps 743 mmHg 70%
    11:00 +18°C° 0 mm 7 mps 744 mmHg 64%
    12:00 +18°C° 0.1 mm 7 mps 744 mmHg 64%
    13:00 +18°C° 0.1 mm 7 mps 745 mmHg 63%
    14:00 +19°C° 0.1 mm 6 mps 745 mmHg 63%
    15:00 +20°C° 0 mm 6 mps 745 mmHg 63%
    16:00 +20°C° 0 mm 5 mps 746 mmHg 64%
    17:00 +20°C° 0 mm 4 mps 746 mmHg 64%
    18:00 +20°C° 0 mm 3 mps 746 mmHg 69%
    19:00 +19°C° 0 mm 3 mps 746 mmHg 74%
    20:00 +18°C° 0 mm 2 mps 746 mmHg 79%
    21:00 +17°C° 0 mm 3 mps 747 mmHg 81%
    22:00 +17°C° 0 mm 3 mps 747 mmHg 83%
    23:00 +15°C° 0 mm 4 mps 747 mmHg 85%

    Tomorrow, 7 June, Sunday

    Time Temperature Precipitation Wind Pressure Humidity
    00:00 +16°C° 0 mm 3 mps 748 mmHg 87%
    01:00 +14°C° 0 mm 3 mps 748 mmHg 90%
    02:00 +14°C° 0 mm 3 mps 748 mmHg 92%
    03:00 +15°C° 0 mm 2 mps 748 mmHg 92%
    04:00 +15°C° 0 mm 2 mps 748 mmHg 92%
    05:00 +15°C° 0 mm 2 mps 748 mmHg 92%
    06:00 +16°C° 0 mm 2 mps 748 mmHg 87%
    07:00 +18°C° 0 mm 3 mps 748 mmHg 82%
    08:00 +19°C° 0 mm 4 mps 748 mmHg 77%
    09:00 +21°C° 0 mm 5 mps 748 mmHg 75%
    10:00 +22°C° 0 mm 5 mps 748 mmHg 74%
    11:00 +23°C° 0 mm 6 mps 748 mmHg 72%
    12:00 +24°C° 0.3 mm 6 mps 747 mmHg 73%
    13:00 +26°C° 0.3 mm 6 mps 747 mmHg 74%
    14:00 +26°C° 0.3 mm 6 mps 747 mmHg 75%
    15:00 +26°C° 2.2 mm 5 mps 746 mmHg 76%
    16:00 +26°C° 2.2 mm 5 mps 746 mmHg 78%
    17:00 +25°C° 2.2 mm 5 mps 746 mmHg 80%
    18:00 +25°C° 2.3 mm 4 mps 746 mmHg 82%
    19:00 +23°C° 2.3 mm 4 mps 746 mmHg 84%
    20:00 +22°C° 2.3 mm 3 mps 746 mmHg 86%
    21:00 +21°C° 0.7 mm 3 mps 746 mmHg 89%
    22:00 +20°C° 0.7 mm 3 mps 747 mmHg 91%
    23:00 +19°C° 0.7 mm 3 mps 747 mmHg 94%

    Day after tomorrow, 8 June, Monday

    Time Temperature Precipitation Wind Pressure Humidity
    00:00 +19°C° 0.1 mm 3 mps 747 mmHg 95%
    01:00 +19°C° 0.1 mm 3 mps 747 mmHg 96%
    02:00 +18°C° 0.1 mm 3 mps 747 mmHg 96%
    03:00 +18°C° 0 mm 3 mps 747 mmHg 97%
    04:00 +18°C° 0 mm 3 mps 746 mmHg 97%
    05:00 +18°C° 0 mm 3 mps 746 mmHg 97%
    06:00 +19°C° 0 mm 4 mps 746 mmHg 94%
    07:00 +20°C° 0 mm 4 mps 747 mmHg 91%
    08:00 +21°C° 0 mm 4 mps 747 mmHg 88%
    09:00 +23°C° 0 mm 4 mps 747 mmHg 82%
    10:00 +25°C° 0 mm 5 mps 747 mmHg 76%
    11:00 +27°C° 0 mm 5 mps 747 mmHg 69%
    12:00 +27°C° 0.1 mm 6 mps 747 mmHg 66%
    13:00 +28°C° 0.1 mm 6 mps 747 mmHg 63%
    14:00 +29°C° 0.1 mm 6 mps 747 mmHg 60%
    15:00 +28°C° 0.1 mm 6 mps 747 mmHg 62%
    16:00 +28°C° 0.1 mm 6 mps 747 mmHg 64%
    17:00 +28°C° 0.1 mm 5 mps 746 mmHg 66%
    18:00 +26°C° 0.1 mm 5 mps 746 mmHg 71%
    19:00 +25°C° 0.1 mm 4 mps 747 mmHg 76%
    20:00 +23°C° 0.1 mm 4 mps 747 mmHg 80%
    21:00 +22°C° 0.4 mm 3 mps 747 mmHg 83%
    22:00 +20°C° 0.4 mm 3 mps 747 mmHg 86%
    23:00 +19°C° 0.4 mm 3 mps 748 mmHg 90%

    9 June, Tuesday

    Time Temperature Precipitation Wind Pressure Humidity
    00:00 +19°C° 0 mm 3 mps 748 mmHg 91%
    01:00 +19°C° 0 mm 3 mps 748 mmHg 92%
    02:00 +18°C° 0 mm 3 mps 748 mmHg 94%
    03:00 +18°C° 0 mm 2 mps 748 mmHg 94%
    04:00 +18°C° 0 mm 2 mps 748 mmHg 95%
    05:00 +18°C° 0 mm 2 mps 748 mmHg 96%
    06:00 +19°C° 0 mm 2 mps 748 mmHg 92%
    07:00 +21°C° 0 mm 2 mps 749 mmHg 88%
    08:00 +23°C° 0 mm 2 mps 749 mmHg 85%
    09:00 +24°C° 1.4 mm 3 mps 749 mmHg 81%
    10:00 +25°C° 1.4 mm 3 mps 749 mmHg 77%
    11:00 +26°C° 1.4 mm 3 mps 749 mmHg 73%
    12:00 +27°C° 0.8 mm 3 mps 749 mmHg 72%
    13:00 +27°C° 0.8 mm 3 mps 749 mmHg 71%
    14:00 +27°C° 0.8 mm 3 mps 749 mmHg 70%
    15:00 +27°C° 1.1 mm 2 mps 749 mmHg 71%
    16:00 +26°C° 1.1 mm 2 mps 749 mmHg 73%
    17:00 +26°C° 1.1 mm 2 mps 749 mmHg 74%
    18:00 +25°C° 0.4 mm 2 mps 749 mmHg 80%
    19:00 +24°C° 0.4 mm 2 mps 749 mmHg 85%
    20:00 +21°C° 0.4 mm 3 mps 749 mmHg 91%
    21:00 +21°C° 0.2 mm 2 mps 749 mmHg 92%
    22:00 +20°C° 0.2 mm 2 mps 750 mmHg 93%
    23:00 +19°C° 0.2 mm 2 mps 750 mmHg 94%

    10 June, Wednesday

    Time Temperature Precipitation Wind Pressure Humidity
    00:00 +19°C° 0.1 mm 2 mps 750 mmHg 94%
    01:00 +18°C° 0.1 mm 2 mps 750 mmHg 94%
    02:00 +18°C° 0.1 mm 2 mps 750 mmHg 95%
    03:00 +18°C° 0.2 mm 2 mps 749 mmHg 95%
    04:00 +18°C° 0.2 mm 2 mps 749 mmHg 95%
    05:00 +18°C° 0.2 mm 2 mps 749 mmHg 95%
    06:00 +19°C° 0.3 mm 2 mps 749 mmHg 92%
    07:00 +21°C° 0.3 mm 2 mps 749 mmHg 89%
    08:00 +23°C° 0.3 mm 2 mps 750 mmHg 85%
    09:00 +25°C° 0.6 mm 2 mps 749 mmHg 79%
    10:00 +26°C° 0.6 mm 3 mps 749 mmHg 72%
    11:00 +28°C° 0.6 mm 3 mps 749 mmHg 66%
    12:00 +28°C° 0.2 mm 3 mps 749 mmHg 63%
    13:00 +29°C° 0.2 mm 3 mps 749 mmHg 61%
    14:00 +29°C° 0.2 mm 3 mps 748 mmHg 58%
    15:00 +28°C° 1 mm 2 mps 748 mmHg 63%
    16:00 +28°C° 1 mm 2 mps 748 mmHg 68%
    17:00 +27°C° 1 mm 1 mps 748 mmHg 73%
    18:00 +26°C° 0.9 mm 1 mps 748 mmHg 76%
    19:00 +25°C° 0.9 mm 1 mps 748 mmHg 80%
    20:00 +23°C° 0.9 mm 2 mps 748 mmHg 84%
    21:00 +23°C° 0.2 mm 2 mps 748 mmHg 85%
    22:00 +21°C° 0.2 mm 2 mps 748 mmHg 87%
    23:00 +20°C° 0.2 mm 2 mps 748 mmHg 89%

    11 June, Thursday

    Time Temperature Precipitation Wind Pressure Humidity
    00:00 +20°C° 0 mm 2 mps 748 mmHg 90%
    01:00 +19°C° 0 mm 2 mps 747 mmHg 92%
    02:00 +19°C° 0 mm 2 mps 747 mmHg 94%
    03:00 +19°C° 0.5 mm 2 mps 747 mmHg 94%
    04:00 +19°C° 0.5 mm 2 mps 747 mmHg 95%
    05:00 +18°C° 0.5 mm 2 mps 747 mmHg 96%
    06:00 +20°C° 0.7 mm 2 mps 747 mmHg 94%
    07:00 +21°C° 0.7 mm 2 mps 747 mmHg 91%
    08:00 +23°C° 0.7 mm 2 mps 747 mmHg 89%
    09:00 +24°C° 1.5 mm 2 mps 746 mmHg 83%
    10:00 +26°C° 1.5 mm 2 mps 746 mmHg 77%
    11:00 +27°C° 1.5 mm 2 mps 746 mmHg 72%
    12:00 +28°C° 0.8 mm 2 mps 746 mmHg 69%
    13:00 +28°C° 0.8 mm 2 mps 745 mmHg 66%
    14:00 +28°C° 0.8 mm 2 mps 745 mmHg 64%
    15:00 +27°C° 1.6 mm 2 mps 745 mmHg 70%
    16:00 +26°C° 1.6 mm 2 mps 745 mmHg 77%
    17:00 +24°C° 1.6 mm 3 mps 745 mmHg 83%
    18:00 +22°C° 1.5 mm 3 mps 744 mmHg 86%
    19:00 +21°C° 1.5 mm 4 mps 744 mmHg 90%
    20:00 +20°C° 1.5 mm 4 mps 744 mmHg 93%
    21:00 +20°C° 0.6 mm 4 mps 745 mmHg 94%
    22:00 +19°C° 0.6 mm 4 mps 745 mmHg 95%
    23:00 +19°C° 0.6 mm 4 mps 745 mmHg 96%
    Show more